Weather History for KMWM - April, 2013

Change the Weather History Date:

Friday, April 19, 2013

  Actual Average Record
Temperature  
Mean Temperature 28 °F -  
Max Temperature 32 °F 60 °F 91 °F (1985)
Min Temperature 24 °F 39 °F 18 °F (1988)
Degree Days  
Heating Degree Days 37    
Moisture  
Dew Point 24 °F    
Average Humidity 84    
Maximum Humidity 100    
Minimum Humidity 75    
Precipitation  
Precipitation 0.00 in - - ()
Sea Level Pressure  
Sea Level Pressure 29.80 in    
Wind  
Wind Speed 18 mph (NW)    
Max Wind Speed 29 mph    
Max Gust Speed 36 mph    
Visibility 8 miles    
Events Snow    
Averages and records for this station are not official NWS values.
T = Trace of Precipitation, MM = Missing Value Source: NWS Daily Summary

Daily Weather History Graph

Daily Weather History Graph

Search for Another Location

Airport or City:

Trip Planner

Search our weather history database for the weather conditions in past years. The results will help you decide how hot, cold, wet, or windy it might be!

Date:

Astronomy

Apr. 19, 2013 Rise Set
Actual Time 6:30 AM CDT 8:09 PM CDT
Civil Twilight 5:59 AM CDT 8:39 PM CDT
Nautical Twilight 5:23 AM CDT 9:17 PM CDT
Astronomical Twilight 4:43 AM CDT 9:56 PM CDT
Moon 1:42 PM CDT (4/19) 2:59 AM CDT (4/19)
Length of Visible Light 14h 40m
Length of Day
13h 39m
First Quarter, 62% of the Moon is Illuminated
Apr 19
First Quarter
Apr 25
Full
May 2
Last Quarter
May 9
New
May 17
First Quarter

Hourly Weather History & Observations

Time (CDT) Temp. Windchill Dew Point Humidity Pressure Visibility Wind Dir Wind Speed Gust Speed Precip Events Conditions
12:12 AM 28.4 °F 17.5 °F 28.4 °F 100% 29.65 in - NW 13.8 mph - N/A   Overcast
12:33 AM 28.4 °F 16.6 °F 28.4 °F 100% 29.65 in - NW 16.1 mph - N/A   Overcast
12:52 AM 28.4 °F 16.2 °F 28.4 °F 100% 29.64 in - NW 17.3 mph - N/A   Overcast
1:12 AM 28.4 °F 17.5 °F 26.6 °F 93% 29.64 in - NW 13.8 mph - N/A   Overcast
1:33 AM 28.4 °F 16.6 °F 26.6 °F 93% 29.64 in - NW 16.1 mph 20.7 mph N/A   Unknown
1:52 AM 26.6 °F 15.2 °F 26.6 °F 100% 29.63 in 2.5 mi NW 13.8 mph - N/A Snow Light Snow
2:12 AM 26.6 °F 15.2 °F 24.8 °F 93% 29.63 in 3.0 mi NW 13.8 mph - N/A   Overcast
2:33 AM 26.6 °F 14.7 °F 24.8 °F 93% 29.63 in 3.0 mi NW 15.0 mph - N/A Snow Light Snow
2:52 AM 26.6 °F 15.7 °F 24.8 °F 93% 29.63 in 3.0 mi NW 12.7 mph - N/A Snow Light Snow
3:12 AM 26.6 °F 14.7 °F 24.8 °F 93% 29.63 in 3.0 mi NW 15.0 mph - N/A Snow Light Snow
3:33 AM 26.6 °F 14.7 °F 24.8 °F 93% 29.63 in 4.0 mi NW 15.0 mph 20.7 mph N/A Snow Light Snow
3:52 AM 26.6 °F 15.7 °F 23.0 °F 86% 29.64 in 5.0 mi NW 12.7 mph - N/A   Overcast
4:12 AM 26.6 °F 15.2 °F 23.0 °F 86% 29.64 in 5.0 mi NW 13.8 mph - N/A   Overcast
4:33 AM 26.6 °F 14.3 °F 23.0 °F 86% 29.65 in 7.0 mi NW 16.1 mph - N/A   Overcast
4:52 AM 24.8 °F 11.9 °F 21.2 °F 86% 29.65 in 7.0 mi NW 16.1 mph - N/A   Overcast
5:12 AM 24.8 °F 10.7 °F 21.2 °F 86% 29.65 in 5.0 mi NW 19.6 mph - N/A   Mostly Cloudy
5:33 AM 24.8 °F 11.9 °F 21.2 °F 86% 29.65 in 7.0 mi NW 16.1 mph - N/A   Clear
5:52 AM 24.8 °F 11.1 °F 21.2 °F 86% 29.65 in 7.0 mi NW 18.4 mph 23.0 mph N/A   Clear
6:12 AM 24.8 °F 11.9 °F 21.2 °F 86% 29.66 in 10.0 mi NW 16.1 mph - N/A   Clear
6:32 AM 24.8 °F 11.9 °F 21.2 °F 86% 29.67 in 10.0 mi WNW 16.1 mph 23.0 mph N/A   Clear
6:52 AM 24.8 °F 11.5 °F 21.2 °F 86% 29.68 in 7.0 mi NW 17.3 mph 23.0 mph N/A   Clear
7:13 AM 24.8 °F 11.5 °F 21.2 °F 86% 29.68 in 7.0 mi WNW 17.3 mph - N/A   Clear
7:32 AM 24.8 °F 11.5 °F 21.2 °F 86% 29.69 in 10.0 mi NW 17.3 mph 24.2 mph N/A   Scattered Clouds
7:52 AM 24.8 °F 11.5 °F 21.2 °F 86% 29.70 in 10.0 mi NW 17.3 mph - N/A   Scattered Clouds
8:13 AM 26.6 °F 13.4 °F 21.2 °F 80% 29.70 in 10.0 mi WNW 18.4 mph 25.3 mph N/A   Clear
8:32 AM 26.6 °F 13.1 °F 21.2 °F 80% 29.71 in 7.0 mi WNW 19.6 mph - N/A   Clear
8:52 AM 26.6 °F 12.4 °F 21.2 °F 80% 29.71 in 7.0 mi NW 21.9 mph 29.9 mph N/A   Clear
9:13 AM 26.6 °F 12.7 °F 23.0 °F 86% 29.71 in 7.0 mi NW 20.7 mph 26.5 mph N/A   Clear
9:32 AM 28.4 °F 14.7 °F 23.0 °F 80% 29.72 in 7.0 mi NW 21.9 mph 27.6 mph N/A   Clear
9:52 AM 28.4 °F 15.1 °F 23.0 °F 80% 29.72 in 5.0 mi NW 20.7 mph 27.6 mph N/A   Haze
10:32 AM 28.4 °F 14.4 °F 24.8 °F 86% 29.74 in 7.0 mi NW 23.0 mph 27.6 mph N/A   Clear
10:52 AM 28.4 °F 14.7 °F 24.8 °F 86% 29.75 in 7.0 mi NW 21.9 mph - N/A   Clear
11:13 AM 30.2 °F 17.1 °F 24.8 °F 80% 29.76 in 10.0 mi NW 21.9 mph 31.1 mph N/A   Clear
11:32 AM 30.2 °F 16.5 °F 24.8 °F 80% 29.77 in 10.0 mi NW 24.2 mph 28.8 mph N/A   Clear
11:52 AM 30.2 °F 16.5 °F 24.8 °F 80% 29.77 in 10.0 mi NW 24.2 mph 31.1 mph N/A   Clear
12:13 PM 30.2 °F 16.8 °F 24.8 °F 80% 29.78 in 10.0 mi WNW 23.0 mph 28.8 mph N/A   Clear
12:32 PM 30.2 °F 17.4 °F 24.8 °F 80% 29.79 in 10.0 mi WNW 20.7 mph 28.8 mph N/A   Clear
12:52 PM 30.2 °F 16.2 °F 24.8 °F 80% 29.80 in 10.0 mi NW 25.3 mph 29.9 mph N/A   Clear
1:13 PM 30.2 °F 16.8 °F 24.8 °F 80% 29.81 in 10.0 mi NW 23.0 mph 28.8 mph N/A   Clear
1:33 PM 30.2 °F 17.4 °F 24.8 °F 80% 29.82 in 10.0 mi NW 20.7 mph 28.8 mph N/A   Clear
1:52 PM 30.2 °F 16.2 °F 24.8 °F 80% 29.82 in 10.0 mi NW 25.3 mph - N/A   Scattered Clouds
2:13 PM 30.2 °F 16.2 °F 24.8 °F 80% 29.83 in 10.0 mi NW 25.3 mph 28.8 mph N/A   Clear
2:33 PM 32.0 °F 18.4 °F 24.8 °F 75% 29.84 in 10.0 mi NW 26.5 mph 32.2 mph N/A   Mostly Cloudy
2:52 PM 30.2 °F 15.9 °F 24.8 °F 80% 29.84 in 10.0 mi WNW 26.5 mph 32.2 mph N/A   Mostly Cloudy
3:13 PM 30.2 °F 15.9 °F 24.8 °F 80% 29.85 in 10.0 mi NW 26.5 mph - N/A   Mostly Cloudy
3:33 PM 32.0 °F 19.2 °F 24.8 °F 75% 29.85 in 10.0 mi WNW 23.0 mph - N/A   Overcast
3:52 PM 30.2 °F 15.4 °F 24.8 °F 80% 29.86 in 10.0 mi NW 28.8 mph 34.5 mph N/A   Overcast
4:13 PM 30.2 °F 15.7 °F 24.8 °F 80% 29.87 in 10.0 mi NW 27.6 mph 35.7 mph N/A   Mostly Cloudy
4:33 PM 32.0 °F 18.9 °F 24.8 °F 75% 29.88 in 10.0 mi NW 24.2 mph 32.2 mph N/A   Mostly Cloudy
4:52 PM 30.2 °F 16.8 °F 24.8 °F 80% 29.89 in 10.0 mi NW 23.0 mph 32.2 mph N/A   Scattered Clouds
5:13 PM 30.2 °F 15.9 °F 24.8 °F 80% 29.90 in 10.0 mi NW 26.5 mph 31.1 mph N/A   Mostly Cloudy
5:33 PM 30.2 °F 16.8 °F 24.8 °F 80% 29.91 in 10.0 mi NW 23.0 mph 31.1 mph N/A   Mostly Cloudy
5:52 PM 30.2 °F 16.5 °F 24.8 °F 80% 29.92 in 10.0 mi NW 24.2 mph 32.2 mph N/A   Mostly Cloudy
6:13 PM 30.2 °F 17.1 °F 24.8 °F 80% 29.93 in 10.0 mi NW 21.9 mph 26.5 mph N/A   Overcast
6:33 PM 30.2 °F 17.8 °F 24.8 °F 80% 29.94 in 10.0 mi NW 19.6 mph 26.5 mph N/A   Overcast
6:52 PM 30.2 °F 16.5 °F 24.8 °F 80% 29.94 in 10.0 mi NW 24.2 mph 27.6 mph N/A   Overcast
7:13 PM 30.2 °F 17.4 °F 24.8 °F 80% 29.95 in 10.0 mi NW 20.7 mph 25.3 mph N/A   Overcast
7:33 PM 30.2 °F 18.5 °F 24.8 °F 80% 29.96 in 10.0 mi WNW 17.3 mph 23.0 mph N/A   Overcast
7:52 PM 28.4 °F 15.8 °F 24.8 °F 86% 29.96 in 10.0 mi NW 18.4 mph 23.0 mph N/A   Mostly Cloudy
8:12 PM 28.4 °F 16.6 °F 24.8 °F 86% 29.97 in 10.0 mi WNW 16.1 mph - N/A   Scattered Clouds
8:33 PM 28.4 °F 17.0 °F 23.0 °F 80% 29.98 in 10.0 mi WNW 15.0 mph - N/A   Clear
8:52 PM 28.4 °F 17.0 °F 23.0 °F 80% 29.99 in 10.0 mi WNW 15.0 mph - N/A   Clear
9:12 PM 28.4 °F 17.5 °F 23.0 °F 80% 30.00 in 10.0 mi NW 13.8 mph - N/A   Clear
9:32 PM 26.6 °F 15.7 °F 21.2 °F 80% 30.01 in 10.0 mi NW 12.7 mph - N/A   Clear
9:52 PM 26.6 °F 16.2 °F 21.2 °F 80% 30.02 in 10.0 mi WNW 11.5 mph - N/A   Clear
10:12 PM 26.6 °F 15.2 °F 21.2 °F 80% 30.02 in 10.0 mi WNW 13.8 mph - N/A   Clear
10:32 PM 26.6 °F 16.2 °F 21.2 °F 80% 30.03 in 10.0 mi WNW 11.5 mph - N/A   Clear
10:53 PM 24.8 °F 14.6 °F 19.4 °F 80% 30.03 in 10.0 mi NW 10.4 mph - N/A   Clear
11:12 PM 24.8 °F 14.0 °F 19.4 °F 80% 30.03 in 10.0 mi WNW 11.5 mph - N/A   Clear
11:32 PM 24.8 °F 14.0 °F 19.4 °F 80% 30.03 in 10.0 mi WNW 11.5 mph - N/A   Clear